period_start,C,m1,H,J0,J1,J2,J3,J4,J5,JA,JB,JC,JD,JJ,JK,JN,#
2016-11-02 00:03:27,0.03,0.01,0.00,19.24,24.80,28.35,14.73,47.98,1010.26,2043.64,3532.92,3169.00,3600.01,600.31,600.23,0.61,0000 0000 0000 0000 000000
2016-11-02 00:08:29,0.01,0.01,0.00,19.26,24.80,28.34,14.75,48.23,1010.24,2043.60,3532.17,3168.96,3599.96,599.80,599.67,0.66,0000 0000 0000 0000 000000
2016-11-02 00:13:30,-0.00,0.01,0.00,19.25,24.79,28.35,14.68,48.23,1010.27,2043.42,3532.00,3168.72,3599.51,599.82,599.69,0.71,0000 0000 0000 0000 000000
2016-11-02 00:18:31,0.00,0.01,0.00,19.26,24.78,28.35,14.82,48.38,1010.27,2043.24,3531.77,3168.08,3599.02,600.15,599.89,0.76,0000 0000 0000 0000 000000
2016-11-02 00:23:32,0.02,0.01,0.00,19.28,24.77,28.36,14.73,48.37,1010.27,2043.34,3531.13,3168.02,3599.00,599.75,599.57,0.81,0000 0000 0000 0000 000000
2016-11-02 00:28:33,0.02,0.01,0.00,19.23,24.77,28.36,14.83,48.65,1010.26,2043.44,3531.00,3168.00,3598.97,600.32,600.45,0.86,0000 0000 0000 0000 000000
2016-11-02 00:33:35,0.02,0.01,0.00,19.24,24.77,28.34,14.71,48.38,1010.27,2043.58,3530.94,3168.00,3598.66,599.66,599.97,0.91,0000 0000 0000 0000 000000
2016-11-02 00:38:36,0.03,0.01,0.00,19.23,24.77,28.34,14.76,48.34,1010.27,2043.67,3530.24,3167.99,3598.11,600.21,600.11,0.96,0000 0000 0000 0000 000000
2016-11-02 00:43:37,0.02,0.01,0.00,19.23,24.76,28.32,14.77,48.35,1010.27,2043.88,3530.01,3167.96,3598.01,600.08,600.05,1.01,0000 0000 0000 0000 000000
2016-11-02 00:48:38,0.00,0.01,0.00,19.21,24.75,28.34,14.79,48.17,1010.28,2043.97,3529.99,3167.94,3598.00,600.31,600.42,1.06,0000 0000 0000 0000 000000
2016-11-02 00:53:39,0.01,0.01,0.00,19.21,24.75,28.32,14.80,48.35,1010.29,2043.97,3529.85,3167.77,3597.99,600.23,600.23,1.11,0000 0000 0000 0000 000000
2016-11-02 00:58:40,0.02,0.01,0.00,19.22,24.75,28.29,14.75,48.10,1010.41,2043.96,3529.23,3167.43,3597.88,599.85,599.96,1.16,0000 0000 0000 0000 000000
2016-11-02 01:03:42,0.01,0.01,0.00,19.22,24.75,28.31,14.70,48.25,1010.56,2043.98,3529.00,3167.04,3597.26,599.81,599.94,1.21,0000 0000 0000 0000 000000
2016-11-02 01:08:43,0.00,0.02,0.00,19.23,24.75,28.30,14.78,48.27,1010.50,2043.98,3528.94,3167.00,3597.06,600.53,600.52,1.26,0000 0000 0000 0000 000000
2016-11-02 01:13:44,0.01,0.02,0.00,19.23,24.74,28.31,14.79,48.47,1010.39,2043.97,3528.31,3167.00,3597.00,600.13,600.04,1.31,0000 0000 0000 0000 000000
2016-11-02 01:18:45,0.00,0.02,0.00,19.26,24.74,28.30,14.72,48.25,1010.48,2043.97,3528.02,3166.98,3596.88,599.76,599.73,1.36,0000 0000 0000 0000 000000
2016-11-02 01:23:47,0.01,0.02,0.00,19.24,24.73,28.31,14.78,48.35,1010.54,2043.99,3528.00,3166.90,3596.24,600.47,600.44,1.41,0000 0000 0000 0000 000000
2016-11-02 01:28:48,0.01,0.02,0.00,19.27,24.72,28.31,14.74,48.47,1010.68,2043.98,3527.90,3166.40,3596.03,599.79,599.83,1.46,0000 0000 0000 0000 000000
2016-11-02 01:33:49,0.02,0.02,0.00,19.25,24.72,28.29,14.73,48.27,1010.72,2043.98,3527.17,3166.04,3596.00,600.02,600.22,1.52,0000 0000 0000 0000 000000
2016-11-02 01:38:50,0.01,0.02,0.00,19.26,24.72,28.28,14.74,48.39,1010.75,2043.96,3527.00,3166.00,3595.63,600.19,600.32,1.57,0000 0000 0000 0000 000000
2016-11-02 01:43:52,0.00,0.02,0.00,19.26,24.72,28.27,14.75,48.13,1010.76,2043.97,3526.96,3166.00,3595.09,600.12,600.30,1.62,0000 0000 0000 0000 000000
2016-11-02 01:48:53,0.01,0.02,0.00,19.21,24.72,28.26,14.76,48.27,1010.76,2043.98,3526.54,3165.98,3595.00,599.68,600.03,1.67,0000 0000 0000 0000 000000
2016-11-02 01:53:54,0.01,0.02,0.00,19.23,24.71,28.29,14.74,48.19,1010.76,2043.98,3526.03,3165.82,3594.99,600.13,600.41,1.72,0000 0000 0000 0000 000000
2016-11-02 01:58:56,0.01,0.02,0.00,19.27,24.70,28.29,14.76,48.35,1010.76,2043.98,3526.00,3165.37,3594.75,599.99,600.16,1.77,0000 0000 0000 0000 000000
2016-11-02 02:03:57,0.01,0.02,0.00,19.30,24.70,28.28,14.72,48.30,1010.76,2043.97,3525.90,3165.10,3594.18,599.89,599.89,1.82,0000 0000 0000 0000 000000
2016-11-02 02:08:58,0.01,0.02,0.00,19.33,24.70,28.28,14.75,48.25,1010.76,2043.97,3525.38,3165.01,3594.01,600.21,600.38,1.87,0000 0000 0000 0000 000000
2016-11-02 02:13:59,0.00,0.02,0.00,19.31,24.70,28.29,14.72,48.49,1010.76,2043.97,3525.04,3165.00,3593.99,600.03,600.17,1.92,0000 0000 0000 0000 000000
2016-11-02 02:19:00,0.00,0.02,0.00,19.28,24.70,28.29,14.83,48.42,1010.76,2043.97,3525.00,3165.00,3593.95,600.61,600.76,1.97,0000 0000 0000 0000 000000
2016-11-02 02:24:01,0.01,0.02,0.00,19.28,24.70,28.25,14.75,48.03,1010.77,2043.97,3524.93,3164.99,3593.37,599.84,599.99,2.02,0000 0000 0000 0000 000000
2016-11-02 02:29:02,0.01,0.02,0.00,19.29,24.70,28.29,14.73,48.27,1010.77,2043.97,3524.21,3164.87,3593.02,599.69,599.89,2.07,0000 0000 0000 0000 000000
2016-11-02 02:34:03,0.01,0.03,0.00,19.27,24.70,28.29,14.74,47.98,1010.77,2043.97,3524.00,3164.34,3593.00,600.35,600.44,2.12,0000 0000 0000 0000 000000
2016-11-02 02:39:04,0.00,0.03,0.00,19.27,24.70,28.30,14.83,48.52,1010.80,2043.96,3523.98,3164.06,3592.97,600.51,600.67,2.17,0000 0000 0000 0000 000000
2016-11-02 02:44:06,0.00,0.03,0.00,19.27,24.70,28.28,14.66,47.98,1010.85,2043.96,3523.89,3164.01,3592.75,599.76,599.89,2.22,0000 0000 0000 0000 000000
2016-11-02 02:49:07,0.01,0.03,0.00,19.28,24.70,28.28,14.57,47.93,1010.83,2043.98,3523.33,3164.00,3592.39,599.37,599.60,2.27,0000 0000 0000 0000 000000
2016-11-02 02:54:08,0.01,0.03,0.00,19.31,24.70,28.27,14.71,48.06,1010.96,2043.98,3523.02,3164.00,3592.04,599.91,600.11,2.32,0000 0000 0000 0000 000000
2016-11-02 02:59:10,0.00,0.03,0.00,19.30,24.70,28.29,14.72,48.16,1011.09,2043.98,3523.00,3164.00,3592.00,600.26,600.57,2.37,0000 0000 0000 0000 000000
2016-11-02 03:04:11,0.00,0.03,0.00,19.28,24.70,28.30,14.84,48.35,1011.15,2043.97,3522.88,3163.98,3591.98,600.59,600.93,2.42,0000 0000 0000 0000 000000
2016-11-02 03:09:13,0.02,0.03,0.00,19.30,24.70,28.31,14.72,48.20,1011.23,2043.99,3522.25,3163.80,3591.81,599.51,599.99,2.47,0000 0000 0000 0000 000000
2016-11-02 03:14:14,0.01,0.03,0.00,19.32,24.70,28.31,14.76,48.15,1011.22,2043.98,3522.01,3163.42,3591.41,600.24,600.57,2.52,0000 0000 0000 0000 000000
2016-11-02 03:19:15,0.01,0.03,0.00,19.32,24.71,28.29,14.69,48.16,1011.21,2043.99,3521.98,3163.06,3591.04,599.86,600.26,2.57,0000 0000 0000 0000 000000
2016-11-02 03:24:17,0.00,0.03,0.00,19.30,24.72,28.31,14.76,47.92,1011.24,2043.98,3521.59,3163.00,3590.98,600.19,600.54,2.62,0000 0000 0000 0000 000000
2016-11-02 03:29:18,0.00,0.03,0.00,19.30,24.72,28.32,14.70,48.23,1011.24,2043.97,3521.04,3162.99,3590.85,599.69,600.07,2.67,0000 0000 0000 0000 000000
2016-11-02 03:34:19,0.01,0.03,0.00,19.28,24.72,28.30,14.73,47.97,1011.25,2043.96,3521.00,3162.97,3590.25,600.45,600.76,2.72,0000 0000 0000 0000 000000
2016-11-02 03:39:21,0.01,0.03,0.00,19.30,24.72,28.30,14.67,47.82,1011.27,2043.97,3520.97,3162.75,3590.01,599.27,599.84,2.77,0000 0000 0000 0000 000000
2016-11-02 03:44:22,0.02,0.03,0.00,19.30,24.72,28.32,14.69,48.07,1011.39,2043.97,3520.59,3162.32,3589.99,599.88,600.45,2.82,0000 0000 0000 0000 000000
2016-11-02 03:49:23,0.01,0.03,0.00,19.32,24.72,28.35,14.64,47.48,1011.42,2043.97,3520.05,3162.03,3589.96,599.39,599.91,2.87,0000 0000 0000 0000 000000
2016-11-02 03:54:24,0.00,0.03,0.00,19.36,24.72,28.32,14.74,48.08,1011.59,2043.96,3520.00,3162.01,3589.63,600.34,600.63,2.92,0000 0000 0000 0000 000000
2016-11-02 03:59:25,0.00,0.03,0.00,19.36,24.74,28.32,14.75,48.29,1011.72,2043.93,3520.00,3162.00,3589.08,599.93,600.32,2.97,0000 0000 0000 0000 000000
2016-11-02 04:04:26,-0.01,0.03,0.00,19.34,24.74,28.32,14.72,48.25,1011.70,2043.82,3519.92,3161.99,3589.00,599.90,600.48,3.02,0000 0000 0000 0000 000000
2016-11-02 04:09:27,0.02,0.03,0.00,19.36,24.75,28.30,14.75,48.24,1011.71,2043.81,3519.25,3161.90,3588.97,599.94,600.46,3.07,0000 0000 0000 0000 000000
2016-11-02 04:14:29,0.01,0.04,0.00,19.34,24.75,28.34,14.57,47.72,1011.71,2043.87,3519.00,3161.60,3588.72,599.55,599.99,3.12,0000 0000 0000 0000 000000
2016-11-02 04:19:30,0.01,0.04,0.00,19.33,24.75,28.32,14.72,47.70,1011.72,2043.76,3518.99,3161.08,3588.11,599.47,600.08,3.17,0000 0000 0000 0000 000000
2016-11-02 04:24:31,0.02,0.04,0.00,19.37,24.75,28.31,14.86,48.48,1011.73,2043.84,3518.49,3161.00,3588.01,600.98,601.43,3.22,0000 0000 0000 0000 000000
2016-11-02 04:29:33,0.01,0.04,0.00,19.38,24.75,28.35,14.69,47.81,1011.73,2043.90,3518.03,3161.00,3588.00,600.27,600.65,3.27,0000 0000 0000 0000 000000
2016-11-02 04:34:34,-0.01,0.04,0.00,19.35,24.75,28.35,14.67,47.67,1011.73,2043.79,3517.99,3160.98,3587.85,599.08,599.64,3.32,0000 0000 0000 0000 000000
2016-11-02 04:39:35,0.01,0.04,0.00,19.36,24.75,28.35,14.72,47.71,1011.74,2043.82,3517.96,3160.97,3587.38,600.25,600.87,3.37,0000 0000 0000 0000 000000
2016-11-02 04:44:37,0.03,0.04,0.00,19.40,24.75,28.34,14.64,47.68,1011.76,2043.79,3517.45,3160.71,3587.04,599.76,600.40,3.42,0000 0000 0000 0000 000000
2016-11-02 04:49:37,0.00,0.04,0.00,19.39,24.75,28.32,14.77,47.83,1011.87,2043.75,3517.03,3160.16,3587.00,599.67,600.30,3.47,0000 0000 0000 0000 000000
2016-11-02 04:54:39,0.01,0.04,0.00,19.39,24.76,28.33,14.62,47.79,1012.12,2043.75,3516.99,3160.01,3586.95,599.42,600.25,3.52,0000 0000 0000 0000 000000
2016-11-02 04:59:40,-0.01,0.04,0.00,19.41,24.77,28.35,14.82,48.40,1012.21,2043.48,3516.87,3160.00,3586.37,600.31,601.04,3.57,0000 0000 0000 0000 000000
2016-11-02 05:04:41,0.01,0.04,0.00,19.41,24.77,28.34,14.74,48.23,1012.21,2043.38,3516.16,3159.98,3586.01,600.56,601.30,3.62,0000 0000 0000 0000 000000
2016-11-02 05:09:43,-0.00,0.04,0.00,19.40,24.77,28.36,14.72,48.01,1012.22,2043.19,3515.99,3159.61,3585.93,600.03,600.56,3.67,0000 0000 0000 0000 000000
2016-11-02 05:14:44,0.02,0.04,0.00,19.42,24.77,28.35,14.84,48.22,1012.22,2043.09,3515.54,3159.04,3585.16,600.43,601.07,3.72,0000 0000 0000 0000 000000
2016-11-02 05:19:45,0.00,0.04,0.00,19.42,24.77,28.38,14.74,48.15,1012.22,2043.08,3515.01,3158.98,3584.97,600.01,600.46,3.77,0000 0000 0000 0000 000000
2016-11-02 05:24:47,0.03,0.04,0.00,19.41,24.77,28.39,14.69,47.96,1012.22,2043.08,3514.83,3158.56,3584.50,599.24,600.37,3.82,0000 0000 0000 0000 000000
2016-11-02 05:29:48,0.02,0.04,0.00,19.44,24.77,28.41,14.78,48.17,1012.23,2043.07,3514.13,3158.06,3584.04,600.36,600.99,3.87,0000 0000 0000 0000 000000
2016-11-02 05:34:49,0.00,0.04,0.00,19.40,24.77,28.38,14.77,48.26,1012.23,2043.08,3513.98,3157.99,3583.98,600.26,601.04,3.93,0000 0000 0000 0000 000000
2016-11-02 05:39:50,0.03,0.04,0.00,19.41,24.77,28.37,14.72,48.16,1012.27,2043.07,3513.36,3157.81,3583.32,600.13,600.96,3.98,0000 0000 0000 0000 000000
2016-11-02 05:44:52,0.07,0.05,0.00,19.41,24.77,28.41,14.64,47.95,1012.31,2043.08,3512.24,3156.33,3582.32,599.36,600.24,4.03,0000 0000 0000 0000 000000
2016-11-02 05:49:53,0.01,0.05,0.00,19.39,24.77,28.39,14.74,48.27,1012.45,2043.05,3511.99,3155.99,3582.00,600.12,601.04,4.08,0000 0000 0000 0000 000000
2016-11-02 05:54:54,0.01,0.05,0.00,19.41,24.76,28.37,14.71,47.82,1012.54,2043.11,3511.73,3155.96,3581.99,599.78,600.80,4.13,0000 0000 0000 0000 000000
2016-11-02 05:59:56,0.03,0.05,0.00,19.40,24.75,28.39,14.82,48.39,1012.61,2043.15,3511.12,3155.66,3581.60,600.33,601.35,4.18,0000 0000 0000 0000 000000
2016-11-02 06:04:57,0.01,0.05,0.00,19.40,24.75,28.38,14.79,48.17,1012.69,2043.14,3510.99,3155.12,3581.05,599.82,600.86,4.23,0000 0000 0000 0000 000000
2016-11-02 06:09:59,0.01,0.05,0.00,19.40,24.75,28.37,14.64,48.16,1012.70,2043.14,3510.78,3155.01,3580.99,599.87,600.87,4.28,0000 0000 0000 0000 000000
2016-11-02 06:15:00,0.02,0.05,0.00,19.42,24.75,28.37,14.72,48.13,1012.71,2043.14,3510.15,3154.92,3580.88,600.04,601.03,4.33,0000 0000 0000 0000 000000
2016-11-02 06:20:01,0.02,0.05,0.00,19.40,24.75,28.37,14.74,47.92,1012.71,2043.11,3510.00,3154.49,3580.19,599.85,600.90,4.38,0000 0000 0000 0000 000000
2016-11-02 06:25:02,0.01,0.05,0.00,19.38,24.75,28.36,14.71,48.08,1012.71,2043.07,3509.92,3154.05,3580.01,599.25,600.41,4.43,0000 0000 0000 0000 000000
2016-11-02 06:30:04,0.01,0.06,0.00,19.39,24.75,28.34,14.74,48.21,1012.71,2043.07,3509.24,3154.00,3579.99,599.84,600.90,4.48,0000 0000 0000 0000 000000
2016-11-02 06:35:05,0.00,0.06,0.00,19.36,24.74,28.37,14.71,48.07,1012.74,2043.05,3509.02,3153.99,3579.72,599.47,600.63,4.53,0000 0000 0000 0000 000000
2016-11-02 06:40:06,0.01,0.06,0.00,19.34,24.74,28.36,14.72,47.75,1012.78,2043.10,3509.00,3153.98,3579.15,600.00,601.06,4.58,0000 0000 0000 0000 000000
2016-11-02 06:45:07,-0.01,0.06,0.00,19.25,24.73,28.31,14.76,47.99,1012.77,2043.08,3508.97,3153.94,3579.02,599.71,601.14,4.63,0000 0000 0000 0000 000000
2016-11-02 06:50:08,0.02,0.06,0.00,19.17,24.72,28.33,14.75,47.96,1012.94,2043.29,3508.86,3153.93,3579.00,600.29,601.97,4.68,0000 0000 0000 0000 000000
2016-11-02 06:55:10,0.01,0.06,0.00,19.24,24.72,28.35,14.77,48.07,1013.13,2043.31,3508.19,3153.68,3578.99,600.16,601.83,4.73,0000 0000 0000 0000 000000
2016-11-02 07:00:11,0.02,0.06,0.00,19.53,24.72,28.30,14.80,47.90,1013.18,2043.41,3508.01,3153.12,3578.83,599.96,601.00,4.78,0000 0000 0000 0000 000000
2016-11-02 07:05:12,0.05,0.06,0.00,19.37,24.71,28.33,14.83,47.98,1013.19,2043.68,3507.98,3153.01,3578.58,599.92,601.40,4.83,0000 0000 0000 0000 000000
2016-11-02 07:10:14,-0.00,0.06,0.00,19.28,24.70,28.31,14.74,47.63,1013.19,2043.66,3507.83,3153.01,3578.08,599.59,601.10,4.88,0000 0000 0000 0000 000000
2016-11-02 07:15:15,0.01,0.06,0.00,19.26,24.70,28.30,14.88,48.11,1013.18,2043.74,3507.41,3153.00,3578.00,600.32,601.96,4.93,0000 0000 0000 0000 000000
2016-11-02 07:20:16,0.03,0.06,0.00,19.26,24.68,28.27,14.79,47.93,1013.20,2043.88,3507.03,3153.00,3578.00,600.10,601.49,4.98,0000 0000 0000 0000 000000
2016-11-02 07:25:17,-0.00,0.06,0.00,19.24,24.67,28.23,14.84,47.99,1013.20,2043.93,3507.00,3153.00,3577.99,600.24,601.92,5.03,0000 0000 0000 0000 000000
2016-11-02 07:30:18,0.00,0.06,0.00,19.23,24.67,28.21,14.80,48.31,1013.20,2043.90,3506.97,3152.95,3577.72,599.92,601.48,5.08,0000 0000 0000 0000 000000
2016-11-02 07:35:19,0.01,0.06,0.00,19.24,24.65,28.23,14.87,47.98,1013.20,2043.94,3506.70,3152.86,3577.29,600.66,602.33,5.13,0000 0000 0000 0000 000000
2016-11-02 07:40:20,0.02,0.07,0.00,19.21,24.65,28.21,14.80,47.94,1013.22,2043.97,3506.16,3152.64,3577.05,599.94,601.57,5.18,0000 0000 0000 0000 000000
2016-11-02 07:45:22,0.01,0.07,0.00,19.22,24.65,28.23,14.87,47.95,1013.31,2043.95,3506.01,3152.13,3577.00,599.82,601.78,5.23,0000 0000 0000 0000 000000
2016-11-02 07:50:23,0.00,0.07,0.00,19.21,24.64,28.21,14.74,48.10,1013.52,2043.94,3505.98,3152.01,3576.99,599.90,601.75,5.28,0000 0000 0000 0000 000000
2016-11-02 07:55:25,0.01,0.07,0.00,19.21,24.62,28.21,14.81,48.08,1013.67,2043.96,3505.70,3152.00,3576.90,600.21,602.20,5.33,0000 0000 0000 0000 000000
2016-11-02 08:00:26,0.02,0.07,0.00,19.22,24.62,28.23,14.93,48.18,1013.68,2043.97,3505.12,3152.00,3576.30,600.23,602.20,5.38,0000 0000 0000 0000 000000
2016-11-02 08:05:27,0.00,0.07,0.00,19.29,24.62,28.20,14.87,47.91,1013.68,2043.96,3505.01,3151.98,3576.03,600.70,602.63,5.43,0000 0000 0000 0000 000000
2016-11-02 08:10:29,-0.00,0.07,0.00,19.27,24.62,28.22,14.71,47.65,1013.69,2043.96,3504.99,3151.95,3576.00,599.19,601.11,5.48,0000 0000 0000 0000 000000
2016-11-02 08:15:30,0.02,0.07,0.00,19.28,24.62,28.23,14.75,48.01,1013.69,2043.96,3504.79,3151.50,3575.98,600.27,602.16,5.53,0000 0000 0000 0000 000000
2016-11-02 08:20:31,0.02,0.07,0.00,19.32,24.63,28.22,14.84,48.42,1013.70,2043.93,3504.13,3151.05,3575.32,600.56,602.36,5.58,0000 0000 0000 0000 000000
2016-11-02 08:25:32,-0.01,0.07,0.00,19.30,24.64,28.25,14.79,48.05,1013.71,2043.80,3504.00,3151.00,3575.01,599.74,601.57,5.63,0000 0000 0000 0000 000000
2016-11-02 08:30:33,-0.01,0.07,0.00,19.30,24.64,28.28,14.72,48.33,1013.71,2043.53,3503.69,3150.91,3574.86,600.01,601.99,5.68,0000 0000 0000 0000 000000
2016-11-02 08:35:35,0.03,0.07,0.00,19.31,24.64,28.27,14.72,48.11,1013.73,2043.49,3503.05,3150.53,3574.30,600.22,602.06,5.73,0000 0000 0000 0000 000000
2016-11-02 08:40:36,0.02,0.07,0.00,19.33,24.65,28.30,14.90,48.46,1013.79,2043.55,3503.00,3150.09,3574.02,600.76,602.39,5.78,0000 0000 0000 0000 000000
2016-11-02 08:45:38,-0.01,0.07,0.00,19.32,24.65,28.28,14.89,48.31,1013.99,2043.56,3502.87,3150.02,3573.99,600.00,601.90,5.83,0000 0000 0000 0000 000000
2016-11-02 08:50:39,0.00,0.07,0.00,19.32,24.65,28.30,14.70,48.03,1014.06,2043.36,3502.17,3150.00,3573.92,600.19,602.20,5.88,0000 0000 0000 0000 000000
2016-11-02 08:55:40,0.03,0.07,0.00,19.29,24.65,28.27,14.86,48.11,1014.17,2043.52,3502.00,3149.99,3573.47,600.40,602.49,5.93,0000 0000 0000 0000 000000
2016-11-02 09:00:41,-0.01,0.07,0.00,19.34,24.65,28.28,14.90,48.38,1014.17,2043.47,3501.92,3149.87,3573.05,600.08,602.15,5.98,0000 0000 0000 0000 000000
2016-11-02 09:05:43,0.04,0.07,0.00,19.34,24.65,28.30,14.84,48.27,1014.17,2043.49,3501.29,3149.43,3573.00,599.38,601.48,6.03,0000 0000 0000 0000 000000
2016-11-02 09:10:44,0.02,0.08,0.00,19.32,24.65,28.31,14.84,48.19,1014.19,2043.62,3501.00,3149.04,3572.97,600.63,602.57,6.08,0000 0000 0000 0000 000000
2016-11-02 09:15:46,-0.01,0.08,0.00,19.34,24.65,28.30,14.71,47.89,1014.21,2043.47,3500.96,3149.00,3572.39,600.05,602.09,6.13,0000 0000 0000 0000 000000
2016-11-02 09:20:47,0.01,0.08,0.00,19.33,24.65,28.31,14.72,48.12,1014.38,2043.42,3500.47,3149.00,3572.01,599.49,601.79,6.18,0000 0000 0000 0000 000000
2016-11-02 09:25:48,-0.01,0.08,0.00,19.36,24.65,28.32,14.71,47.98,1014.24,2043.38,3500.03,3148.94,3572.00,599.68,601.76,6.23,0000 0000 0000 0000 000000
2016-11-02 09:30:49,0.02,0.08,0.00,19.36,24.65,28.34,14.85,48.37,1014.31,2043.21,3499.95,3148.29,3571.59,600.09,602.18,6.29,0000 0000 0000 0000 000000
2016-11-02 09:35:50,0.01,0.08,0.00,19.33,24.66,28.33,14.74,47.99,1014.64,2043.17,3499.46,3148.04,3571.06,599.34,601.67,6.34,0000 0000 0000 0000 000000
2016-11-02 09:40:51,-0.00,0.08,0.00,19.31,24.66,28.33,14.75,47.98,1014.66,2043.10,3499.01,3148.00,3571.00,599.53,601.91,6.39,0000 0000 0000 0000 000000
2016-11-02 09:45:53,0.00,0.08,0.00,19.31,24.67,28.33,14.73,47.61,1014.66,2043.13,3498.98,3147.99,3570.90,599.44,601.76,6.44,0000 0000 0000 0000 000000
2016-11-02 09:50:54,0.02,0.08,0.00,19.29,24.67,28.32,14.81,48.24,1014.66,2043.11,3498.55,3147.92,3570.32,600.21,602.64,6.49,0000 0000 0000 0000 000000
2016-11-02 09:55:56,0.01,0.08,0.00,19.31,24.67,28.29,14.79,48.29,1014.66,2043.09,3498.05,3147.39,3570.01,599.86,602.27,6.54,0000 0000 0000 0000 000000
2016-11-02 10:00:57,0.01,0.08,0.00,19.29,24.67,28.30,14.79,48.15,1014.66,2043.10,3498.01,3147.08,3570.00,600.15,602.65,6.59,0000 0000 0000 0000 000000
2016-11-02 10:05:58,0.01,0.08,0.00,19.28,24.67,28.30,14.87,48.33,1014.70,2043.07,3497.91,3147.00,3569.88,600.21,602.62,6.64,0000 0000 0000 0000 000000
2016-11-02 10:11:00,0.02,0.08,0.00,19.29,24.67,28.32,14.78,48.40,1014.95,2043.05,3497.17,3146.98,3569.15,600.28,602.93,6.69,0000 0000 0000 0000 000000
2016-11-02 10:16:01,0.00,0.08,0.00,19.28,24.67,28.31,14.84,47.78,1015.13,2043.02,3497.00,3146.90,3569.00,600.18,602.96,6.74,0000 0000 0000 0000 000000
2016-11-02 10:21:02,0.01,0.08,0.00,19.29,24.67,28.31,14.82,48.09,1015.15,2043.02,3496.90,3146.43,3568.98,600.02,602.84,6.79,0000 0000 0000 0000 000000
2016-11-02 10:26:03,0.02,0.08,0.00,19.33,24.67,28.32,14.90,48.27,1015.15,2043.02,3496.35,3146.12,3568.70,600.23,602.84,6.84,0000 0000 0000 0000 000000
2016-11-02 10:31:05,0.01,0.08,0.00,19.26,24.67,28.33,14.77,47.55,1015.15,2043.03,3496.01,3146.01,3568.12,599.64,602.41,6.89,0000 0000 0000 0000 000000
2016-11-02 10:36:06,0.00,0.08,0.00,19.30,24.67,28.29,14.83,47.90,1015.15,2043.01,3495.83,3146.00,3568.00,600.42,603.14,6.94,0000 0000 0000 0000 000000
2016-11-02 10:41:07,0.01,0.08,0.00,19.29,24.67,28.30,14.80,47.75,1015.20,2043.01,3495.21,3145.99,3568.00,599.54,602.22,6.99,0000 0000 0000 0000 000000
2016-11-02 10:46:08,0.01,0.09,0.00,19.31,24.67,28.28,14.82,47.96,1015.31,2043.01,3495.01,3145.71,3567.82,600.53,603.31,7.04,0000 0000 0000 0000 000000
2016-11-02 10:51:09,0.02,0.09,0.00,19.33,24.67,28.31,14.73,48.02,1015.31,2043.01,3494.96,3145.19,3567.16,600.05,602.91,7.09,0000 0000 0000 0000 000000
2016-11-02 10:56:11,0.01,0.09,0.00,19.33,24.67,28.29,14.79,48.17,1015.34,2043.01,3494.31,3145.00,3567.00,600.19,602.92,7.14,0000 0000 0000 0000 000000
2016-11-02 11:01:12,0.00,0.09,0.00,19.32,24.67,28.32,14.67,47.59,1015.46,2043.00,3494.02,3145.00,3566.96,599.32,602.33,7.19,0000 0000 0000 0000 000000
2016-11-02 11:06:13,0.01,0.09,0.00,19.31,24.67,28.32,14.72,47.89,1015.55,2043.01,3493.98,3144.98,3566.33,599.52,602.35,7.24,0000 0000 0000 0000 000000
2016-11-02 11:11:14,0.00,0.09,0.00,19.36,24.67,28.31,14.85,48.18,1015.64,2043.01,3493.67,3144.95,3566.01,600.25,603.23,7.29,0000 0000 0000 0000 000000
2016-11-02 11:16:15,0.02,0.09,0.00,19.31,24.68,28.31,14.78,47.92,1015.64,2043.00,3493.05,3144.51,3566.00,599.48,602.47,7.34,0000 0000 0000 0000 000000
2016-11-02 11:21:17,0.00,0.09,0.00,19.34,24.69,28.31,14.89,48.17,1015.66,2043.00,3492.98,3144.04,3565.91,599.86,602.74,7.39,0000 0000 0000 0000 000000
2016-11-02 11:26:18,0.01,0.09,0.00,19.36,24.70,28.34,14.75,47.88,1015.67,2043.00,3492.74,3144.00,3565.31,599.65,602.68,7.44,0000 0000 0000 0000 000000
2016-11-02 11:31:19,0.01,0.09,0.00,19.38,24.70,28.33,14.76,48.02,1015.65,2043.00,3492.09,3143.99,3565.01,600.02,602.87,7.49,0000 0000 0000 0000 000000
2016-11-02 11:36:20,0.00,0.09,0.00,19.34,24.70,28.31,14.83,48.05,1015.66,2043.00,3491.99,3143.96,3565.00,600.15,603.00,7.54,0000 0000 0000 0000 000000
2016-11-02 11:41:21,0.01,0.09,0.00,19.31,24.70,28.32,14.68,47.59,1015.65,2043.00,3491.87,3143.63,3564.95,599.11,602.18,7.59,0000 0000 0000 0000 000000
2016-11-02 11:46:22,0.03,0.09,0.00,19.35,24.70,28.37,14.86,48.07,1015.66,2043.00,3491.33,3143.20,3564.44,599.93,602.91,7.64,0000 0000 0000 0000 000000
2016-11-02 11:51:24,0.00,0.09,0.00,19.36,24.70,28.34,14.82,48.02,1015.76,2043.00,3491.01,3143.02,3564.03,600.50,603.49,7.69,0000 0000 0000 0000 000000
2016-11-02 11:56:26,0.00,0.09,0.00,19.36,24.71,28.37,14.72,48.20,1015.97,2043.00,3490.97,3143.00,3564.00,599.98,603.31,7.74,0000 0000 0000 0000 000000
2016-11-02 12:01:27,0.01,0.10,0.00,19.34,24.72,28.36,14.78,48.03,1016.09,2043.00,3490.35,3142.98,3563.96,599.40,602.71,7.79,0000 0000 0000 0000 000000
2016-11-02 12:06:29,0.01,0.10,0.00,19.38,24.72,28.36,14.79,47.72,1016.11,2043.00,3489.99,3142.82,3563.48,599.63,602.73,7.84,0000 0000 0000 0000 000000
2016-11-02 12:11:30,0.01,0.10,0.00,19.38,24.72,28.36,14.81,47.79,1016.12,2043.00,3489.89,3142.29,3563.05,600.02,603.15,7.89,0000 0000 0000 0000 000000
2016-11-02 12:16:31,0.01,0.10,0.00,19.37,24.72,28.39,14.79,47.75,1016.12,2043.00,3489.20,3142.03,3563.00,600.02,603.14,7.94,0000 0000 0000 0000 000000
2016-11-02 12:21:32,0.00,0.10,0.00,19.41,24.74,28.37,14.63,47.56,1016.13,2042.99,3489.00,3142.00,3562.92,599.27,602.45,7.99,0000 0000 0000 0000 000000
2016-11-02 12:26:34,0.01,0.10,0.00,19.42,24.75,28.38,14.82,47.58,1016.13,2042.99,3488.96,3141.99,3562.40,599.89,602.86,8.04,0000 0000 0000 0000 000000
2016-11-02 12:31:35,0.02,0.10,0.00,19.44,24.75,28.39,14.84,47.74,1016.13,2042.99,3488.44,3141.86,3562.03,600.17,603.18,8.09,0000 0000 0000 0000 000000
2016-11-02 12:36:36,0.01,0.10,0.00,19.45,24.76,28.41,14.76,47.77,1016.14,2042.99,3488.01,3141.34,3561.99,599.96,602.99,8.14,0000 0000 0000 0000 000000
2016-11-02 12:41:37,0.00,0.10,0.00,19.45,24.77,28.42,14.78,47.72,1016.14,2042.99,3487.99,3141.04,3561.88,599.33,602.23,8.19,0000 0000 0000 0000 000000
2016-11-02 12:46:38,0.02,0.10,0.00,19.44,24.78,28.45,14.93,47.76,1016.14,2042.98,3487.61,3141.00,3561.19,600.63,603.65,8.24,0000 0000 0000 0000 000000
2016-11-02 12:51:40,0.00,0.10,0.00,19.50,24.80,28.43,14.71,47.76,1016.21,2042.96,3487.02,3140.98,3560.99,599.46,602.43,8.29,0000 0000 0000 0000 000000
2016-11-02 12:56:41,0.02,0.10,0.00,19.51,24.80,28.49,14.76,47.75,1016.28,2042.95,3486.88,3140.60,3560.81,599.98,603.01,8.34,0000 0000 0000 0000 000000
2016-11-02 13:01:42,0.03,0.10,0.00,19.50,24.81,28.50,14.76,47.93,1016.41,2042.94,3486.29,3140.08,3560.14,599.57,602.73,8.39,0000 0000 0000 0000 000000